Torrington, WY

9:32 AM MDT on April 23, 2018 (GMT -0600)
Torrington Municipal

Weather History for KTOR - December, 2013

Change the Weather History Date:

Wednesday, December 4, 2013

  Actual Average Record
Temperature  
Mean Temperature 1 °F 28 °F  
Max Temperature 9 °F 41 °F 62 °F (2007)
Min Temperature -7 °F 16 °F -7 °F (2009)
Degree Days  
Heating Degree Days 64 37  
Month to date heating degree days 139 145  
Since 1 July heating degree days 1708 1728  
Cooling Degree Days 0 0  
Month to date cooling degree days 0 0  
Year to date cooling degree days 893 678  
Moisture  
Dew Point -3 °F    
Average Humidity 75    
Maximum Humidity 88    
Minimum Humidity 62    
Precipitation  
Precipitation 0.01 in 0.02 in 0.01 in (2002)
Month to date precipitation 0.04 0.06  
Year to date precipitation 13.52 13.90  
Sea Level Pressure  
Sea Level Pressure 30.00 in    
Wind  
Wind Speed 16 mph (NW)    
Max Wind Speed 29 mph    
Max Gust Speed 37 mph    
Visibility 4 miles    
Events Snow    
T = Trace of Precipitation, MM = Missing Value Source: NWS Daily Summary

Daily Weather History Graph

Daily Weather History Graph

Search for Another Location

Airport or City:

Astronomy

Dec. 04, 2013 Rise Set
Actual Time 7:08 AM MST 4:25 PM MST
Civil Twilight 6:37 AM MST 4:56 PM MST
Nautical Twilight 6:02 AM MST 5:31 PM MST
Astronomical Twilight 5:28 AM MST 6:05 PM MST
Moon 8:38 AM MST (12/4) 6:39 PM MST (12/4)
Length of Visible Light 10h 19m
Length of Day
9h 16m
Waxing Crescent, 5% of the Moon is Illuminated
Dec 4
Waxing Crescent
Dec 9
First Quarter
Dec 17
Full
Dec 25
Last Quarter
Jan 1
New

Hourly Weather History & Observations

Time (MST) Temp. Windchill Dew Point Humidity Pressure Visibility Wind Dir Wind Speed Gust Speed Precip Events Conditions
12:14 AM 8.6 °F -8.9 °F 3.2 °F 79% 29.82 in 2.5 mi NNW 16.1 mph - 0.00 in Snow Light Snow
12:38 AM 8.6 °F -9.5 °F 3.2 °F 79% 29.81 in 1.8 mi NW 17.3 mph 24.2 mph 0.00 in Snow Light Snow
12:53 AM 8.1 °F -9.6 °F 3.0 °F 80% 29.98 in 2.0 mi NNW 16.1 mph 23.0 mph 0.00 in Snow Light Snow
1:53 AM 7.0 °F -10.4 °F 3.0 °F 84% 29.99 in 2.0 mi NNW 15.0 mph 20.7 mph 0.00 in Snow Light Snow
2:35 AM 6.8 °F -11.8 °F 1.4 °F 79% 29.81 in 1.8 mi NW 17.3 mph 23.0 mph 0.00 in Snow Light Snow
2:53 AM 7.0 °F -11.0 °F 1.9 °F 80% 30.00 in 1.2 mi NW 16.1 mph 24.2 mph 0.00 in Snow Light Snow
3:15 AM 6.8 °F -11.8 °F 1.4 °F 79% 29.79 in 1.2 mi NNW 17.3 mph 24.2 mph 0.00 in Snow Light Snow
3:35 AM 6.8 °F -11.3 °F 1.4 °F 79% 29.80 in 1.0 mi NW 16.1 mph 23.0 mph 0.00 in Snow Light Snow
3:48 AM 6.8 °F -12.4 °F 1.4 °F 79% 29.81 in 1.0 mi NW 18.4 mph - 0.00 in Snow Light Snow
3:53 AM 6.1 °F -13.3 °F 1.0 °F 80% 30.00 in 1.0 mi NW 18.4 mph 24.2 mph 0.00 in Snow Light Snow
4:01 AM 6.8 °F -12.4 °F 1.4 °F 79% 29.81 in 1.0 mi NW 18.4 mph 27.6 mph 0.00 in Snow Light Snow
4:37 AM 5.0 °F -13.0 °F 1.4 °F 85% 29.81 in 1.0 mi NW 15.0 mph - 0.00 in Snow Light Snow
4:53 AM 5.0 °F -17.5 °F 1.0 °F 84% 30.01 in 1.0 mi NW 25.3 mph 29.9 mph 0.01 in Snow Light Snow
5:05 AM 5.0 °F -15.7 °F -0.4 °F 78% 29.78 in 1.0 mi NW 20.7 mph 31.1 mph 0.00 in Snow Light Snow
5:53 AM 3.9 °F -17.1 °F -0.9 °F 80% 29.99 in 2.0 mi NW 20.7 mph 28.8 mph 0.00 in Snow Light Snow
6:09 AM 5.0 °F -15.7 °F -0.4 °F 78% 29.79 in 1.8 mi NW 20.7 mph - 0.00 in Snow Light Snow
6:53 AM 3.9 °F -17.6 °F -0.9 °F 80% 30.05 in 1.5 mi NW 21.9 mph 29.9 mph 0.00 in Snow Light Snow
7:53 AM 3.9 °F -17.1 °F -2.0 °F 76% 30.05 in 1.2 mi NW 20.7 mph 31.1 mph 0.00 in Snow Light Snow
8:51 AM 3.2 °F -17.6 °F -0.4 °F 85% 29.86 in 2.5 mi NW 19.6 mph 25.3 mph 0.00 in Snow Light Snow
8:53 AM 3.9 °F -16.6 °F -2.0 °F 76% 30.09 in 2.5 mi NW 19.6 mph 25.3 mph 0.00 in Snow Light Snow
9:23 AM 5.0 °F -13.0 °F -2.2 °F 72% 29.85 in 4.0 mi NW 15.0 mph 25.3 mph 0.00 in   Overcast
9:53 AM 3.9 °F -15.0 °F -2.0 °F 76% 30.09 in 3.0 mi NW 16.1 mph 29.9 mph 0.00 in   Haze
10:12 AM 3.2 °F -18.1 °F -2.2 °F 78% 29.87 in 2.5 mi NW 20.7 mph 28.8 mph 0.00 in   Overcast
10:18 AM 3.2 °F -18.6 °F -2.2 °F 78% 29.88 in 3.0 mi NW 21.9 mph 31.1 mph 0.00 in   Overcast
10:27 AM 3.2 °F -19.9 °F -2.2 °F 78% 29.90 in 2.5 mi NW 25.3 mph 36.8 mph 0.00 in   Overcast
10:43 AM 3.2 °F -20.3 °F -2.2 °F 78% 29.87 in 1.5 mi NW 26.5 mph 35.7 mph 0.00 in   Overcast
10:53 AM 3.9 °F -17.1 °F -2.9 °F 73% 30.10 in 1.8 mi NW 20.7 mph 35.7 mph 0.00 in   Overcast
11:01 AM 3.2 °F -18.1 °F -2.2 °F 78% 29.89 in 2.5 mi NW 20.7 mph 34.5 mph 0.00 in   Overcast
11:13 AM 3.2 °F -19.9 °F -2.2 °F 78% 29.90 in 1.0 mi NW 25.3 mph 34.5 mph 0.00 in Snow Light Snow
11:53 AM 3.9 °F -18.5 °F -2.0 °F 76% 30.12 in 1.0 mi NW 24.2 mph 33.4 mph 0.00 in Snow Light Snow
12:03 PM 3.2 °F -19.5 °F -2.2 °F 78% 29.88 in 0.8 mi NW 24.2 mph 32.2 mph 0.00 in Snow Light Snow
12:12 PM 3.2 °F -20.3 °F -2.2 °F 78% 29.86 in 1.0 mi NNW 26.5 mph 35.7 mph 0.00 in Snow Light Snow
12:36 PM 5.0 °F -16.2 °F -2.2 °F 72% 29.89 in 2.0 mi NW 21.9 mph 31.1 mph 0.00 in   Overcast
12:53 PM 5.0 °F -17.1 °F -2.9 °F 70% 30.10 in 2.5 mi NW 24.2 mph 34.5 mph 0.00 in   Overcast
1:02 PM 5.0 °F -17.9 °F -4.0 °F 66% 29.88 in 2.0 mi NW 26.5 mph 36.8 mph 0.00 in   Overcast
1:09 PM 5.0 °F -16.2 °F -4.0 °F 66% 29.88 in 2.5 mi NW 21.9 mph 36.8 mph 0.00 in   Overcast
1:20 PM 5.0 °F -17.5 °F -4.0 °F 66% 29.91 in 3.0 mi NW 25.3 mph 36.8 mph 0.00 in   Overcast
1:53 PM 5.0 °F -14.2 °F -4.0 °F 66% 30.14 in 9.0 mi NW 17.3 mph 26.5 mph 0.00 in   Overcast
2:53 PM 5.0 °F -13.0 °F -5.1 °F 63% 30.16 in 10.0 mi NW 15.0 mph 24.2 mph N/A   Clear
3:53 PM 3.9 °F -16.6 °F -7.1 °F 60% 30.19 in 8.0 mi NNW 19.6 mph 31.1 mph N/A   Clear
4:53 PM 1.9 °F -15.5 °F -9.0 °F 60% 30.22 in 10.0 mi NW 12.7 mph 23.0 mph N/A   Clear
5:53 PM 1.0 °F -20.4 °F -9.0 °F 63% 30.25 in 10.0 mi NW 19.6 mph 27.6 mph N/A   Clear
6:53 PM -0.0 °F -18.0 °F -9.9 °F 63% 30.29 in 10.0 mi NNW 12.7 mph - N/A   Clear
7:53 PM -0.0 °F -15.3 °F -9.9 °F 63% 30.31 in 10.0 mi NNW 9.2 mph 19.6 mph N/A   Clear
8:53 PM -2.9 °F -18.8 °F -11.0 °F 68% 30.33 in 10.0 mi NW 9.2 mph - N/A   Clear
9:53 PM -5.1 °F -13.6 °F -11.9 °F 72% 30.36 in 10.0 mi South 3.5 mph - N/A   Clear
10:53 PM -4.0 °F -20.2 °F -11.9 °F 69% 30.35 in 10.0 mi NW 9.2 mph - N/A   Clear
11:53 PM -7.1 °F -18.1 °F -13.0 °F 75% 30.38 in 10.0 mi WSW 4.6 mph - N/A   Clear